Time,TemperatureF,DewpointF,PressureIn,WindDirection,WindDirectionDegrees,WindSpeedMPH,WindSpeedGustMPH,Humidity,HourlyPrecipIn,Conditions,Clouds,dailyrainin,SoftwareType,DateUTC
2013-08-28 00:02:00,72.2,69.7,30.07,NE,37,0.0,0.0,92,0.00,,,0.00,Wunderground v.1.15,2013-08-28 04:02:00,
2013-08-28 00:06:00,72.1,69.6,30.07,NE,37,0.0,0.0,92,0.00,,,0.00,Wunderground v.1.15,2013-08-28 04:06:00,
2013-08-28 00:12:00,72.1,69.6,30.07,NE,37,0.0,0.0,92,0.00,,,0.00,Wunderground v.1.15,2013-08-28 04:12:00,
2013-08-28 00:18:00,72.0,69.5,30.07,NE,37,0.0,0.0,92,0.00,,,0.00,Wunderground v.1.15,2013-08-28 04:18:00,
2013-08-28 00:24:00,71.9,69.4,30.06,NE,37,0.0,0.0,92,0.00,,,0.00,Wunderground v.1.15,2013-08-28 04:24:00,
2013-08-28 00:30:00,71.8,69.3,30.06,NE,37,0.0,0.0,92,0.00,,,0.00,Wunderground v.1.15,2013-08-28 04:30:00,
2013-08-28 00:36:00,71.7,69.3,30.05,NE,37,0.0,0.0,92,0.00,,,0.00,Wunderground v.1.15,2013-08-28 04:36:00,
2013-08-28 00:42:00,71.6,69.2,30.05,NE,37,0.0,0.0,92,0.00,,,0.00,Wunderground v.1.15,2013-08-28 04:42:00,
2013-08-28 00:48:00,71.5,69.1,30.05,NE,37,0.0,0.0,92,0.00,,,0.00,Wunderground v.1.15,2013-08-28 04:48:00,
2013-08-28 00:54:00,71.4,69.0,30.05,NE,37,0.0,0.0,92,0.00,,,0.00,Wunderground v.1.15,2013-08-28 04:54:00,
2013-08-28 01:00:00,71.3,68.9,30.05,NE,37,0.0,0.0,92,0.00,,,0.00,Wunderground v.1.15,2013-08-28 05:00:00,
2013-08-28 01:06:00,71.3,68.9,30.04,NE,37,0.0,0.0,92,0.00,,,0.00,Wunderground v.1.15,2013-08-28 05:06:00,
2013-08-28 01:12:00,71.2,68.8,30.05,NE,37,0.0,0.0,92,0.00,,,0.00,Wunderground v.1.15,2013-08-28 05:12:00,
2013-08-28 01:18:00,71.1,68.7,30.04,NE,37,0.0,0.0,92,0.00,,,0.00,Wunderground v.1.15,2013-08-28 05:18:00,
2013-08-28 01:24:00,71.1,68.7,30.04,NE,37,0.0,0.0,92,0.00,,,0.00,Wunderground v.1.15,2013-08-28 05:24:00,
2013-08-28 01:30:00,71.0,68.6,30.04,NE,37,0.0,0.0,92,0.00,,,0.00,Wunderground v.1.15,2013-08-28 05:30:00,
2013-08-28 01:36:00,70.9,68.5,30.04,NE,37,0.0,0.0,92,0.00,,,0.00,Wunderground v.1.15,2013-08-28 05:36:00,
2013-08-28 01:42:00,70.8,68.4,30.04,NE,37,0.0,0.0,92,0.00,,,0.00,Wunderground v.1.15,2013-08-28 05:42:00,
2013-08-28 01:48:00,70.8,68.4,30.04,NE,37,0.0,0.0,92,0.00,,,0.00,Wunderground v.1.15,2013-08-28 05:48:00,
2013-08-28 01:54:00,70.7,68.3,30.03,NE,37,0.0,0.0,92,0.00,,,0.00,Wunderground v.1.15,2013-08-28 05:54:00,
2013-08-28 02:00:00,70.6,68.2,30.03,NE,37,0.0,0.0,92,0.00,,,0.00,Wunderground v.1.15,2013-08-28 06:00:00,
2013-08-28 02:06:00,70.5,68.1,30.03,NE,37,0.0,0.0,92,0.00,,,0.00,Wunderground v.1.15,2013-08-28 06:06:00,
2013-08-28 02:12:00,70.4,68.0,30.03,NE,37,0.0,0.0,92,0.00,,,0.00,Wunderground v.1.15,2013-08-28 06:12:00,
2013-08-28 02:18:00,70.3,67.9,30.03,NE,37,0.0,0.0,92,0.00,,,0.00,Wunderground v.1.15,2013-08-28 06:18:00,
2013-08-28 02:24:00,70.2,67.8,30.03,NE,37,0.0,0.0,92,0.00,,,0.00,Wunderground v.1.15,2013-08-28 06:24:00,
2013-08-28 02:30:00,70.1,67.7,30.02,NE,37,0.0,0.0,92,0.00,,,0.00,Wunderground v.1.15,2013-08-28 06:30:00,
2013-08-28 02:36:00,70.0,67.6,30.02,NE,37,0.0,0.0,92,0.00,,,0.00,Wunderground v.1.15,2013-08-28 06:36:00,
2013-08-28 02:42:00,69.9,67.5,30.02,NE,37,0.0,0.0,92,0.00,,,0.00,Wunderground v.1.15,2013-08-28 06:42:00,
2013-08-28 02:48:00,69.9,67.5,30.02,NE,37,0.0,0.0,92,0.00,,,0.00,Wunderground v.1.15,2013-08-28 06:48:00,
2013-08-28 02:54:00,69.9,67.5,30.03,NE,37,0.0,0.0,92,0.00,,,0.00,Wunderground v.1.15,2013-08-28 06:54:00,
2013-08-28 03:00:00,69.8,67.4,30.02,NE,37,0.0,0.0,92,0.00,,,0.00,Wunderground v.1.15,2013-08-28 07:00:00,
2013-08-28 03:06:00,69.7,67.3,30.02,NE,37,0.0,0.0,92,0.00,,,0.00,Wunderground v.1.15,2013-08-28 07:06:00,
2013-08-28 03:12:00,69.7,67.3,30.02,NE,37,0.0,0.0,92,0.00,,,0.00,Wunderground v.1.15,2013-08-28 07:12:00,
2013-08-28 03:18:00,69.6,67.2,30.02,NE,37,0.0,0.0,92,0.00,,,0.00,Wunderground v.1.15,2013-08-28 07:18:00,
2013-08-28 03:24:00,69.7,67.3,30.02,NE,37,0.0,0.0,92,0.00,,,0.00,Wunderground v.1.15,2013-08-28 07:24:00,
2013-08-28 03:30:00,69.6,67.2,30.02,NE,37,0.0,0.0,92,0.00,,,0.00,Wunderground v.1.15,2013-08-28 07:30:00,
2013-08-28 03:36:00,69.4,67.0,30.01,NE,37,0.0,0.0,92,0.00,,,0.00,Wunderground v.1.15,2013-08-28 07:36:00,
2013-08-28 03:42:00,69.4,67.0,30.01,NE,37,0.0,0.0,92,0.00,,,0.00,Wunderground v.1.15,2013-08-28 07:42:00,
2013-08-28 03:48:00,69.3,67.2,30.01,NE,37,0.0,0.0,93,0.00,,,0.00,Wunderground v.1.15,2013-08-28 07:48:00,
2013-08-28 03:54:00,69.2,66.8,30.01,NE,37,0.0,0.0,92,0.00,,,0.00,Wunderground v.1.15,2013-08-28 07:54:00,
2013-08-28 04:00:00,69.1,66.7,30.01,NE,37,0.0,0.0,92,0.00,,,0.00,Wunderground v.1.15,2013-08-28 08:00:00,
2013-08-28 04:06:00,69.0,66.6,30.00,NE,37,0.0,0.0,92,0.00,,,0.00,Wunderground v.1.15,2013-08-28 08:06:00,
2013-08-28 04:12:00,68.9,66.5,30.00,NE,37,0.0,0.0,92,0.00,,,0.00,Wunderground v.1.15,2013-08-28 08:12:00,
2013-08-28 04:18:00,68.9,66.5,30.01,NE,37,0.0,0.0,92,0.00,,,0.00,Wunderground v.1.15,2013-08-28 08:18:00,
2013-08-28 04:24:00,68.9,66.5,30.01,NE,37,0.0,0.0,92,0.00,,,0.00,Wunderground v.1.15,2013-08-28 08:24:00,
2013-08-28 04:30:00,68.8,66.4,30.01,NE,37,0.0,0.0,92,0.00,,,0.00,Wunderground v.1.15,2013-08-28 08:30:00,
2013-08-28 04:36:00,68.7,66.6,30.01,NE,37,0.0,0.0,93,0.00,,,0.00,Wunderground v.1.15,2013-08-28 08:36:00,
2013-08-28 04:42:00,68.6,66.5,30.01,NE,37,0.0,0.0,93,0.00,,,0.00,Wunderground v.1.15,2013-08-28 08:42:00,
2013-08-28 04:48:00,68.6,66.5,30.00,NE,37,0.0,0.0,93,0.00,,,0.00,Wunderground v.1.15,2013-08-28 08:48:00,
2013-08-28 04:54:00,68.5,66.1,30.00,NE,37,0.0,0.0,92,0.00,,,0.00,Wunderground v.1.15,2013-08-28 08:54:00,
2013-08-28 05:00:00,68.5,66.1,30.00,NE,37,0.0,0.0,92,0.00,,,0.00,Wunderground v.1.15,2013-08-28 09:00:00,
2013-08-28 05:06:00,68.4,66.0,30.00,NE,37,0.0,0.0,92,0.00,,,0.00,Wunderground v.1.15,2013-08-28 09:06:00,
2013-08-28 05:12:00,68.3,65.9,30.00,NE,37,0.0,0.0,92,0.00,,,0.00,Wunderground v.1.15,2013-08-28 09:12:00,
2013-08-28 05:18:00,68.3,65.9,30.00,NE,37,0.0,0.0,92,0.00,,,0.00,Wunderground v.1.15,2013-08-28 09:18:00,
2013-08-28 05:24:00,68.1,66.0,30.01,NE,37,0.0,0.0,93,0.00,,,0.00,Wunderground v.1.15,2013-08-28 09:24:00,
2013-08-28 05:30:00,68.1,66.0,30.01,NE,37,0.0,0.0,93,0.00,,,0.00,Wunderground v.1.15,2013-08-28 09:30:00,
2013-08-28 05:36:00,68.1,66.0,30.01,NE,37,0.0,0.0,93,0.00,,,0.00,Wunderground v.1.15,2013-08-28 09:36:00,
2013-08-28 05:42:00,68.1,66.0,30.01,NE,37,0.0,0.0,93,0.00,,,0.00,Wunderground v.1.15,2013-08-28 09:42:00,
2013-08-28 05:48:00,68.0,65.9,30.01,NE,37,0.0,0.0,93,0.00,,,0.00,Wunderground v.1.15,2013-08-28 09:48:00,
2013-08-28 05:54:00,68.0,65.9,30.01,NE,37,0.0,0.0,93,0.00,,,0.00,Wunderground v.1.15,2013-08-28 09:54:00,
2013-08-28 06:00:00,67.9,65.8,30.02,NE,37,0.0,0.0,93,0.00,,,0.00,Wunderground v.1.15,2013-08-28 10:00:00,
2013-08-28 06:06:00,67.9,65.8,30.02,NE,37,0.0,0.0,93,0.00,,,0.00,Wunderground v.1.15,2013-08-28 10:06:00,
2013-08-28 06:12:00,67.9,65.8,30.02,NE,37,0.0,0.0,93,0.00,,,0.00,Wunderground v.1.15,2013-08-28 10:12:00,
2013-08-28 06:18:00,67.9,65.8,30.02,NE,37,0.0,0.0,93,0.00,,,0.00,Wunderground v.1.15,2013-08-28 10:18:00,
2013-08-28 06:24:00,67.8,65.7,30.02,NE,37,0.0,0.0,93,0.00,,,0.00,Wunderground v.1.15,2013-08-28 10:24:00,
2013-08-28 06:30:00,67.8,65.7,30.02,NE,37,0.0,0.0,93,0.00,,,0.00,Wunderground v.1.15,2013-08-28 10:30:00,
2013-08-28 06:36:00,67.7,65.3,30.02,NE,37,0.0,0.0,92,0.00,,,0.00,Wunderground v.1.15,2013-08-28 10:36:00,
2013-08-28 06:42:00,67.7,65.3,30.03,NE,37,0.0,0.0,92,0.00,,,0.00,Wunderground v.1.15,2013-08-28 10:42:00,
2013-08-28 06:48:00,67.6,65.5,30.03,NE,37,0.0,0.0,93,0.00,,,0.00,Wunderground v.1.15,2013-08-28 10:48:00,
2013-08-28 06:54:00,67.6,65.5,30.03,NE,37,0.0,0.0,93,0.00,,,0.00,Wunderground v.1.15,2013-08-28 10:54:00,
2013-08-28 07:00:00,67.6,65.2,30.03,NE,37,0.0,0.0,92,0.00,,,0.00,Wunderground v.1.15,2013-08-28 11:00:00,
2013-08-28 07:06:00,67.7,65.3,30.03,NE,37,0.0,0.0,92,0.00,,,0.00,Wunderground v.1.15,2013-08-28 11:06:00,
2013-08-28 07:12:00,67.7,65.3,30.03,NE,37,0.0,0.0,92,0.00,,,0.00,Wunderground v.1.15,2013-08-28 11:12:00,
2013-08-28 07:18:00,67.7,65.3,30.03,NE,37,0.0,0.0,92,0.00,,,0.00,Wunderground v.1.15,2013-08-28 11:18:00,
2013-08-28 07:24:00,67.8,65.4,30.04,NE,37,0.0,0.0,92,0.00,,,0.00,Wunderground v.1.15,2013-08-28 11:24:00,
2013-08-28 07:30:00,67.9,65.8,30.04,NE,37,0.0,0.0,93,0.00,,,0.00,Wunderground v.1.15,2013-08-28 11:30:00,
2013-08-28 07:36:00,68.1,66.0,30.04,NE,37,0.0,0.0,93,0.00,,,0.00,Wunderground v.1.15,2013-08-28 11:36:00,
2013-08-28 07:42:00,68.4,66.3,30.04,NE,37,0.0,0.0,93,0.00,,,0.00,Wunderground v.1.15,2013-08-28 11:42:00,
2013-08-28 07:48:00,68.7,66.6,30.04,NE,37,0.0,0.0,93,0.00,,,0.00,Wunderground v.1.15,2013-08-28 11:48:00,
2013-08-28 07:54:00,69.1,67.0,30.04,NE,37,0.0,0.0,93,0.00,,,0.00,Wunderground v.1.15,2013-08-28 11:54:00,
2013-08-28 08:00:00,69.5,67.4,30.04,NE,37,0.0,0.0,93,0.00,,,0.00,Wunderground v.1.15,2013-08-28 12:00:00,
2013-08-28 08:06:00,69.8,67.7,30.04,NE,37,0.0,0.0,93,0.00,,,0.00,Wunderground v.1.15,2013-08-28 12:06:00,
2013-08-28 08:12:00,70.2,68.1,30.04,NE,37,0.0,0.0,93,0.00,,,0.00,Wunderground v.1.15,2013-08-28 12:12:00,
2013-08-28 08:18:00,70.6,68.5,30.04,NE,37,0.0,0.0,93,0.00,,,0.00,Wunderground v.1.15,2013-08-28 12:18:00,
2013-08-28 08:24:00,70.9,68.8,30.04,NE,37,0.0,0.0,93,0.00,,,0.00,Wunderground v.1.15,2013-08-28 12:24:00,
2013-08-28 08:30:00,71.4,69.3,30.04,NE,37,0.0,0.0,93,0.00,,,0.00,Wunderground v.1.15,2013-08-28 12:30:00,
2013-08-28 08:36:00,71.7,69.6,30.05,NE,37,0.0,0.0,93,0.00,,,0.00,Wunderground v.1.15,2013-08-28 12:36:00,
2013-08-28 08:42:00,72.1,70.0,30.05,NE,37,0.0,0.0,93,0.00,,,0.00,Wunderground v.1.15,2013-08-28 12:42:00,
2013-08-28 08:48:00,72.5,70.0,30.04,NE,37,0.0,0.0,92,0.00,,,0.00,Wunderground v.1.15,2013-08-28 12:48:00,
2013-08-28 08:54:00,73.0,70.9,30.05,NE,37,0.0,0.0,93,0.00,,,0.00,Wunderground v.1.15,2013-08-28 12:54:00,
2013-08-28 09:00:00,73.4,70.9,30.05,NE,37,0.0,0.0,92,0.00,,,0.00,Wunderground v.1.15,2013-08-28 13:00:00,
2013-08-28 09:06:00,73.9,71.4,30.05,NE,37,0.0,0.0,92,0.00,,,0.00,Wunderground v.1.15,2013-08-28 13:06:00,
2013-08-28 09:12:00,74.5,71.4,30.05,NE,37,0.0,0.0,90,0.00,,,0.00,Wunderground v.1.15,2013-08-28 13:12:00,
2013-08-28 09:18:00,75.3,71.8,30.05,ENE,65,0.0,1.0,89,0.00,,,0.00,Wunderground v.1.15,2013-08-28 13:18:00,
2013-08-28 09:24:00,76.0,72.2,30.05,ENE,66,0.0,1.0,88,0.00,,,0.00,Wunderground v.1.15,2013-08-28 13:24:00,
2013-08-28 09:30:00,76.7,72.2,30.05,ENE,66,0.0,0.0,86,0.00,,,0.00,Wunderground v.1.15,2013-08-28 13:30:00,
2013-08-28 09:36:00,77.3,72.4,30.05,SE,144,0.0,0.0,85,0.00,,,0.00,Wunderground v.1.15,2013-08-28 13:36:00,
2013-08-28 09:42:00,78.2,72.3,30.04,NE,35,0.0,0.0,82,0.00,,,0.00,Wunderground v.1.15,2013-08-28 13:42:00,
2013-08-28 09:48:00,78.8,72.1,30.05,NE,56,0.0,0.0,80,0.00,,,0.00,Wunderground v.1.15,2013-08-28 13:48:00,
2013-08-28 09:54:00,79.4,72.3,30.04,NE,56,0.0,0.0,79,0.00,,,0.00,Wunderground v.1.15,2013-08-28 13:54:00,
2013-08-28 10:00:00,79.9,73.2,30.04,NE,56,0.0,0.0,80,0.00,,,0.00,Wunderground v.1.15,2013-08-28 14:00:00,
2013-08-28 10:06:00,80.4,72.5,30.05,NNE,30,0.0,0.0,77,0.00,,,0.00,Wunderground v.1.15,2013-08-28 14:06:00,
2013-08-28 10:12:00,81.0,73.1,30.05,North,5,0.0,0.0,77,0.00,,,0.00,Wunderground v.1.15,2013-08-28 14:12:00,
2013-08-28 10:18:00,81.9,74.4,30.05,NNE,28,0.0,0.0,78,0.00,,,0.00,Wunderground v.1.15,2013-08-28 14:18:00,
2013-08-28 10:24:00,82.4,73.7,30.05,North,350,0.0,1.0,75,0.00,,,0.00,Wunderground v.1.15,2013-08-28 14:24:00,
2013-08-28 10:30:00,83.2,74.8,30.05,North,350,0.0,0.0,76,0.00,,,0.00,Wunderground v.1.15,2013-08-28 14:30:00,
2013-08-28 10:36:00,83.6,74.0,30.06,NE,34,0.0,0.0,73,0.00,,,0.00,Wunderground v.1.15,2013-08-28 14:36:00,
2013-08-28 10:42:00,83.8,73.4,30.06,ENE,64,0.0,0.0,71,0.00,,,0.00,Wunderground v.1.15,2013-08-28 14:42:00,
2013-08-28 10:48:00,83.7,73.3,30.06,East,83,0.0,1.0,71,0.00,,,0.00,Wunderground v.1.15,2013-08-28 14:48:00,
2013-08-28 10:54:00,83.6,73.6,30.06,ENE,60,0.0,0.0,72,0.00,,,0.00,Wunderground v.1.15,2013-08-28 14:54:00,
2013-08-28 11:00:00,83.5,73.1,30.06,ENE,60,0.0,0.0,71,0.00,,,0.00,Wunderground v.1.15,2013-08-28 15:00:00,
2013-08-28 11:06:00,83.7,74.1,30.06,ENE,60,0.0,0.0,73,0.00,,,0.00,Wunderground v.1.15,2013-08-28 15:06:00,
2013-08-28 11:12:00,84.0,74.0,30.05,ENE,60,0.0,0.0,72,0.00,,,0.00,Wunderground v.1.15,2013-08-28 15:12:00,
2013-08-28 11:18:00,84.6,74.6,30.05,NNW,339,0.0,2.0,72,0.00,,,0.00,Wunderground v.1.15,2013-08-28 15:18:00,
2013-08-28 11:24:00,84.9,72.7,30.05,NNW,339,0.0,0.0,67,0.00,,,0.00,Wunderground v.1.15,2013-08-28 15:24:00,
2013-08-28 11:30:00,85.0,73.3,30.05,North,355,0.0,0.0,68,0.00,,,0.00,Wunderground v.1.15,2013-08-28 15:30:00,
2013-08-28 11:36:00,85.4,72.3,30.05,North,355,0.0,0.0,65,0.00,,,0.00,Wunderground v.1.15,2013-08-28 15:36:00,
2013-08-28 11:42:00,85.9,73.2,30.05,NNE,14,0.0,0.0,66,0.00,,,0.00,Wunderground v.1.15,2013-08-28 15:42:00,
2013-08-28 11:48:00,86.1,74.3,30.05,NNE,19,0.0,0.0,68,0.00,,,0.00,Wunderground v.1.15,2013-08-28 15:48:00,
2013-08-28 11:54:00,86.7,74.0,30.06,NNE,19,0.0,0.0,66,0.00,,,0.00,Wunderground v.1.15,2013-08-28 15:54:00,
2013-08-28 12:00:00,87.8,73.2,30.05,NNW,341,0.0,0.0,62,0.00,,,0.00,Wunderground v.1.15,2013-08-28 16:00:00,
2013-08-28 12:06:00,88.4,73.2,30.06,ENE,70,1.0,1.0,61,0.00,,,0.00,Wunderground v.1.15,2013-08-28 16:06:00,
2013-08-28 12:12:00,88.7,72.0,30.05,East,82,1.0,1.0,58,0.00,,,0.00,Wunderground v.1.15,2013-08-28 16:12:00,
2013-08-28 12:18:00,88.8,73.1,30.05,NE,43,0.0,1.0,60,0.00,,,0.00,Wunderground v.1.15,2013-08-28 16:18:00,
2013-08-28 12:24:00,88.7,72.5,30.05,NNW,331,0.0,1.0,59,0.00,,,0.00,Wunderground v.1.15,2013-08-28 16:24:00,
2013-08-28 12:30:00,88.5,72.3,30.05,WNW,303,0.0,0.0,59,0.00,,,0.00,Wunderground v.1.15,2013-08-28 16:30:00,
2013-08-28 12:36:00,88.7,74.0,30.05,NW,313,0.0,1.0,62,0.00,,,0.00,Wunderground v.1.15,2013-08-28 16:36:00,
2013-08-28 12:42:00,88.9,73.7,30.05,ENE,66,0.0,1.0,61,0.00,,,0.00,Wunderground v.1.15,2013-08-28 16:42:00,
2013-08-28 12:48:00,89.0,75.2,30.04,NE,37,0.0,1.0,64,0.00,,,0.00,Wunderground v.1.15,2013-08-28 16:48:00,
2013-08-28 12:54:00,88.7,73.0,30.04,NNE,24,0.0,1.0,60,0.00,,,0.00,Wunderground v.1.15,2013-08-28 16:54:00,
2013-08-28 13:00:00,88.5,72.3,30.04,North,8,0.0,0.0,59,0.00,,,0.00,Wunderground v.1.15,2013-08-28 17:00:00,
2013-08-28 13:06:00,88.3,72.2,30.04,NNE,27,0.0,0.0,59,0.00,,,0.00,Wunderground v.1.15,2013-08-28 17:06:00,
2013-08-28 13:12:00,88.4,74.2,30.04,NNW,343,0.0,0.0,63,0.00,,,0.00,Wunderground v.1.15,2013-08-28 17:12:00,
2013-08-28 13:18:00,88.7,73.5,30.03,NNW,341,0.0,0.0,61,0.00,,,0.00,Wunderground v.1.15,2013-08-28 17:18:00,
2013-08-28 13:24:00,88.8,73.1,30.04,NNE,33,0.0,1.0,60,0.00,,,0.00,Wunderground v.1.15,2013-08-28 17:24:00,
2013-08-28 13:30:00,88.6,73.4,30.03,NW,318,0.0,0.0,61,0.00,,,0.00,Wunderground v.1.15,2013-08-28 17:30:00,
2013-08-28 13:36:00,88.4,74.2,30.03,NNW,334,0.0,0.0,63,0.00,,,0.00,Wunderground v.1.15,2013-08-28 17:36:00,
2013-08-28 13:42:00,88.3,73.1,30.03,North,359,0.0,0.0,61,0.00,,,0.00,Wunderground v.1.15,2013-08-28 17:42:00,
2013-08-28 13:48:00,88.0,71.9,30.03,North,352,0.0,2.0,59,0.00,,,0.00,Wunderground v.1.15,2013-08-28 17:48:00,
2013-08-28 13:54:00,87.6,72.5,30.03,NE,39,1.0,1.0,61,0.00,,,0.00,Wunderground v.1.15,2013-08-28 17:54:00,
2013-08-28 14:00:00,87.4,73.3,30.03,NE,39,0.0,0.0,63,0.00,,,0.00,Wunderground v.1.15,2013-08-28 18:00:00,
2013-08-28 14:06:00,87.1,73.0,30.03,NNW,333,0.0,0.0,63,0.00,,,0.00,Wunderground v.1.15,2013-08-28 18:06:00,
2013-08-28 14:12:00,86.8,73.6,30.03,NNW,333,0.0,0.0,65,0.00,,,0.00,Wunderground v.1.15,2013-08-28 18:12:00,
2013-08-28 14:18:00,86.4,74.1,30.03,NNW,333,0.0,0.0,67,0.00,,,0.00,Wunderground v.1.15,2013-08-28 18:18:00,
2013-08-28 14:24:00,86.3,74.5,30.02,NNW,328,0.0,1.0,68,0.00,,,0.00,Wunderground v.1.15,2013-08-28 18:24:00,
2013-08-28 14:30:00,86.3,74.5,30.02,NW,316,0.0,1.0,68,0.00,,,0.00,Wunderground v.1.15,2013-08-28 18:30:00,
2013-08-28 14:36:00,86.9,74.6,30.02,NE,45,0.0,1.0,67,0.00,,,0.00,Wunderground v.1.15,2013-08-28 18:36:00,
2013-08-28 14:42:00,87.3,74.5,30.02,NNW,328,1.0,3.0,66,0.00,,,0.00,Wunderground v.1.15,2013-08-28 18:42:00,
2013-08-28 14:48:00,87.8,75.5,30.02,NW,316,1.0,4.0,67,0.00,,,0.00,Wunderground v.1.15,2013-08-28 18:48:00,
2013-08-28 14:54:00,88.1,74.8,30.01,NW,316,2.0,5.0,65,0.00,,,0.00,Wunderground v.1.15,2013-08-28 18:54:00,
2013-08-28 15:00:00,88.0,74.8,30.01,NW,311,2.0,2.0,65,0.00,,,0.00,Wunderground v.1.15,2013-08-28 19:00:00,
2013-08-28 15:06:00,88.4,74.2,30.01,NW,312,1.0,2.0,63,0.00,,,0.00,Wunderground v.1.15,2013-08-28 19:06:00,
2013-08-28 15:12:00,88.6,72.4,30.00,NW,324,1.0,1.0,59,0.00,,,0.00,Wunderground v.1.15,2013-08-28 19:12:00,
2013-08-28 15:18:00,88.7,75.0,30.00,North,358,1.0,2.0,64,0.00,,,0.00,Wunderground v.1.15,2013-08-28 19:18:00,
2013-08-28 15:24:00,89.0,75.2,30.00,NNW,338,1.0,1.0,64,0.00,,,0.00,Wunderground v.1.15,2013-08-28 19:24:00,
2013-08-28 15:30:00,89.2,75.0,30.00,North,355,1.0,3.0,63,0.00,,,0.00,Wunderground v.1.15,2013-08-28 19:30:00,
2013-08-28 15:36:00,89.0,74.8,29.99,NNW,340,1.0,4.0,63,0.00,,,0.00,Wunderground v.1.15,2013-08-28 19:36:00,
2013-08-28 15:42:00,88.8,74.6,29.99,NW,316,1.0,3.0,63,0.00,,,0.00,Wunderground v.1.15,2013-08-28 19:42:00,
2013-08-28 15:48:00,88.8,76.4,29.99,NNE,22,1.0,3.0,67,0.00,,,0.00,Wunderground v.1.15,2013-08-28 19:48:00,
2013-08-28 15:54:00,89.1,75.3,29.99,NNE,18,1.0,2.0,64,0.00,,,0.00,Wunderground v.1.15,2013-08-28 19:54:00,
2013-08-28 16:00:00,89.2,75.4,29.99,ENE,62,1.0,1.0,64,0.00,,,0.00,Wunderground v.1.15,2013-08-28 20:00:00,
2013-08-28 16:06:00,89.1,74.9,29.99,NE,39,1.0,3.0,63,0.00,,,0.00,Wunderground v.1.15,2013-08-28 20:06:00,
2013-08-28 16:12:00,88.6,75.3,29.99,NW,312,2.0,3.0,65,0.00,,,0.00,Wunderground v.1.15,2013-08-28 20:12:00,
2013-08-28 16:18:00,88.4,74.2,29.99,North,2,2.0,3.0,63,0.00,,,0.00,Wunderground v.1.15,2013-08-28 20:18:00,
2013-08-28 16:24:00,88.3,75.0,29.99,NNW,333,1.0,1.0,65,0.00,,,0.00,Wunderground v.1.15,2013-08-28 20:24:00,
2013-08-28 16:30:00,88.3,73.6,29.99,NNW,339,1.0,1.0,62,0.00,,,0.00,Wunderground v.1.15,2013-08-28 20:30:00,
2013-08-28 16:36:00,88.1,74.4,29.99,NW,312,1.0,3.0,64,0.00,,,0.00,Wunderground v.1.15,2013-08-28 20:36:00,
2013-08-28 16:42:00,87.8,74.1,29.98,WNW,303,2.0,2.0,64,0.00,,,0.00,Wunderground v.1.15,2013-08-28 20:42:00,
2013-08-28 16:48:00,87.5,74.3,29.98,NNW,331,1.0,2.0,65,0.00,,,0.00,Wunderground v.1.15,2013-08-28 20:48:00,
2013-08-28 16:54:00,87.1,74.4,29.98,North,349,1.0,2.0,66,0.00,,,0.00,Wunderground v.1.15,2013-08-28 20:54:00,
2013-08-28 17:00:00,87.0,74.3,29.98,NNW,345,1.0,2.0,66,0.00,,,0.00,Wunderground v.1.15,2013-08-28 21:00:00,
2013-08-28 17:06:00,87.0,74.7,29.97,NNW,328,1.0,2.0,67,0.00,,,0.00,Wunderground v.1.15,2013-08-28 21:06:00,
2013-08-28 17:12:00,87.0,75.2,29.98,NNW,344,1.0,2.0,68,0.00,,,0.00,Wunderground v.1.15,2013-08-28 21:12:00,
2013-08-28 17:18:00,87.0,75.6,29.98,North,349,1.0,2.0,69,0.00,,,0.00,Wunderground v.1.15,2013-08-28 21:18:00,
2013-08-28 17:24:00,86.8,74.5,29.98,North,351,1.0,1.0,67,0.00,,,0.00,Wunderground v.1.15,2013-08-28 21:24:00,
2013-08-28 17:30:00,86.8,75.4,29.98,North,353,0.0,0.0,69,0.00,,,0.00,Wunderground v.1.15,2013-08-28 21:30:00,
2013-08-28 17:36:00,86.9,75.9,29.98,NNW,328,1.0,2.0,70,0.00,,,0.00,Wunderground v.1.15,2013-08-28 21:36:00,
2013-08-28 17:42:00,86.9,74.2,29.98,NNW,339,1.0,2.0,66,0.00,,,0.00,Wunderground v.1.15,2013-08-28 21:42:00,
2013-08-28 17:48:00,86.7,74.4,29.97,NNW,333,1.0,2.0,67,0.00,,,0.00,Wunderground v.1.15,2013-08-28 21:48:00,
2013-08-28 17:54:00,86.6,74.8,29.97,NNW,343,1.0,2.0,68,0.00,,,0.00,Wunderground v.1.15,2013-08-28 21:54:00,
2013-08-28 18:00:00,86.6,73.9,29.97,NW,322,1.0,2.0,66,0.00,,,0.00,Wunderground v.1.15,2013-08-28 22:00:00,
2013-08-28 18:06:00,86.5,74.7,29.97,NW,315,1.0,2.0,68,0.00,,,0.00,Wunderground v.1.15,2013-08-28 22:06:00,
2013-08-28 18:12:00,86.3,74.5,29.97,NNE,27,1.0,3.0,68,0.00,,,0.00,Wunderground v.1.15,2013-08-28 22:12:00,
2013-08-28 18:18:00,86.0,74.6,29.97,NW,324,2.0,3.0,69,0.00,,,0.00,Wunderground v.1.15,2013-08-28 22:18:00,
2013-08-28 18:24:00,85.8,74.0,29.97,NNW,343,2.0,4.0,68,0.00,,,0.00,Wunderground v.1.15,2013-08-28 22:24:00,
2013-08-28 18:30:00,85.5,74.6,29.96,North,1,1.0,2.0,70,0.00,,,0.00,Wunderground v.1.15,2013-08-28 22:30:00,
2013-08-28 18:36:00,85.3,74.0,29.96,North,4,1.0,2.0,69,0.00,,,0.00,Wunderground v.1.15,2013-08-28 22:36:00,
2013-08-28 18:42:00,85.2,73.9,29.96,North,360,1.0,1.0,69,0.00,,,0.00,Wunderground v.1.15,2013-08-28 22:42:00,
2013-08-28 18:48:00,85.2,73.9,29.97,NNW,336,1.0,1.0,69,0.00,,,0.00,Wunderground v.1.15,2013-08-28 22:48:00,
2013-08-28 18:54:00,85.2,74.7,29.97,NW,309,0.0,3.0,71,0.00,,,0.00,Wunderground v.1.15,2013-08-28 22:54:00,
2013-08-28 19:00:00,85.1,74.6,29.97,North,350,1.0,1.0,71,0.00,,,0.00,Wunderground v.1.15,2013-08-28 23:00:00,
2013-08-28 19:06:00,84.8,74.8,29.97,North,3,0.0,2.0,72,0.00,,,0.00,Wunderground v.1.15,2013-08-28 23:06:00,
2013-08-28 19:12:00,84.4,74.8,29.97,NNE,23,0.0,2.0,73,0.00,,,0.00,Wunderground v.1.15,2013-08-28 23:12:00,
2013-08-28 19:18:00,84.1,74.9,29.97,NW,324,0.0,2.0,74,0.00,,,0.00,Wunderground v.1.15,2013-08-28 23:18:00,
2013-08-28 19:24:00,83.8,74.6,29.97,NNW,348,0.0,1.0,74,0.00,,,0.00,Wunderground v.1.15,2013-08-28 23:24:00,
2013-08-28 19:30:00,83.5,74.7,29.97,NNW,347,0.0,0.0,75,0.00,,,0.00,Wunderground v.1.15,2013-08-28 23:30:00,
2013-08-28 19:36:00,83.0,74.6,29.97,North,349,0.0,0.0,76,0.00,,,0.00,Wunderground v.1.15,2013-08-28 23:36:00,
2013-08-28 19:42:00,82.7,74.4,29.97,NNW,335,0.0,0.0,76,0.00,,,0.00,Wunderground v.1.15,2013-08-28 23:42:00,
2013-08-28 19:48:00,82.5,74.6,29.97,NNW,346,0.0,0.0,77,0.00,,,0.00,Wunderground v.1.15,2013-08-28 23:48:00,
2013-08-28 19:54:00,82.3,74.4,29.97,NNW,346,0.0,0.0,77,0.00,,,0.00,Wunderground v.1.15,2013-08-28 23:54:00,
2013-08-28 20:00:00,82.0,74.8,29.97,WNW,294,0.0,0.0,79,0.00,,,0.00,Wunderground v.1.15,2013-08-29 00:00:00,
2013-08-28 20:06:00,81.6,74.8,29.97,West,261,0.0,0.0,80,0.00,,,0.00,Wunderground v.1.15,2013-08-29 00:06:00,
2013-08-28 20:12:00,81.1,74.3,29.97,West,261,0.0,0.0,80,0.00,,,0.00,Wunderground v.1.15,2013-08-29 00:12:00,
2013-08-28 20:18:00,80.6,74.2,29.97,West,261,0.0,0.0,81,0.00,,,0.00,Wunderground v.1.15,2013-08-29 00:18:00,
2013-08-28 20:24:00,80.3,74.3,29.97,West,261,0.0,0.0,82,0.00,,,0.00,Wunderground v.1.15,2013-08-29 00:24:00,
2013-08-28 20:30:00,79.9,73.9,29.97,West,261,0.0,0.0,82,0.00,,,0.00,Wunderground v.1.15,2013-08-29 00:30:00,
2013-08-28 20:36:00,79.6,74.0,29.97,West,261,0.0,0.0,83,0.00,,,0.00,Wunderground v.1.15,2013-08-29 00:36:00,
2013-08-28 20:42:00,79.4,73.8,29.97,West,273,0.0,0.0,83,0.00,,,0.00,Wunderground v.1.15,2013-08-29 00:42:00,
2013-08-28 20:48:00,79.2,73.9,29.97,West,273,0.0,0.0,84,0.00,,,0.00,Wunderground v.1.15,2013-08-29 00:48:00,
2013-08-28 20:54:00,79.0,73.7,29.97,West,273,0.0,0.0,84,0.00,,,0.00,Wunderground v.1.15,2013-08-29 00:54:00,
2013-08-28 21:00:00,78.8,73.6,29.97,West,273,0.0,0.0,84,0.00,,,0.00,Wunderground v.1.15,2013-08-29 01:00:00,
2013-08-28 21:06:00,78.7,73.8,29.97,West,273,0.0,0.0,85,0.00,,,0.00,Wunderground v.1.15,2013-08-29 01:06:00,
2013-08-28 21:12:00,78.5,73.6,29.97,West,273,0.0,0.0,85,0.00,,,0.00,Wunderground v.1.15,2013-08-29 01:12:00,
2013-08-28 21:18:00,78.3,73.4,29.98,West,273,0.0,0.0,85,0.00,,,0.00,Wunderground v.1.15,2013-08-29 01:18:00,
2013-08-28 21:24:00,78.0,73.5,29.97,West,273,0.0,0.0,86,0.00,,,0.00,Wunderground v.1.15,2013-08-29 01:24:00,
2013-08-28 21:30:00,77.8,73.3,29.98,West,273,0.0,0.0,86,0.00,,,0.00,Wunderground v.1.15,2013-08-29 01:30:00,
2013-08-28 21:36:00,77.6,73.4,29.98,West,273,0.0,0.0,87,0.00,,,0.00,Wunderground v.1.15,2013-08-29 01:36:00,
2013-08-28 21:42:00,77.4,73.2,29.98,West,273,0.0,0.0,87,0.00,,,0.00,Wunderground v.1.15,2013-08-29 01:42:00,
2013-08-28 21:48:00,77.2,73.0,29.98,West,273,0.0,0.0,87,0.00,,,0.00,Wunderground v.1.15,2013-08-29 01:48:00,
2013-08-28 21:54:00,77.1,73.3,29.98,West,273,0.0,0.0,88,0.00,,,0.00,Wunderground v.1.15,2013-08-29 01:54:00,
2013-08-28 22:00:00,77.0,73.2,29.98,West,273,0.0,0.0,88,0.00,,,0.00,Wunderground v.1.15,2013-08-29 02:00:00,
2013-08-28 22:06:00,76.8,73.0,29.98,West,273,0.0,0.0,88,0.00,,,0.00,Wunderground v.1.15,2013-08-29 02:06:00,
2013-08-28 22:12:00,76.8,73.0,29.98,West,273,0.0,0.0,88,0.00,,,0.00,Wunderground v.1.15,2013-08-29 02:12:00,
2013-08-28 22:18:00,76.7,73.2,29.98,West,273,0.0,0.0,89,0.00,,,0.00,Wunderground v.1.15,2013-08-29 02:18:00,
2013-08-28 22:24:00,76.6,73.1,29.98,West,273,0.0,0.0,89,0.00,,,0.00,Wunderground v.1.15,2013-08-29 02:24:00,
2013-08-28 22:30:00,76.5,73.0,29.98,West,273,0.0,0.0,89,0.00,,,0.00,Wunderground v.1.15,2013-08-29 02:30:00,
2013-08-28 22:36:00,76.5,73.0,29.98,West,273,0.0,0.0,89,0.00,,,0.00,Wunderground v.1.15,2013-08-29 02:36:00,
2013-08-28 22:42:00,76.5,73.0,29.98,West,273,0.0,0.0,89,0.00,,,0.00,Wunderground v.1.15,2013-08-29 02:42:00,
2013-08-28 22:48:00,76.4,72.9,29.98,West,273,0.0,0.0,89,0.00,,,0.00,Wunderground v.1.15,2013-08-29 02:48:00,
2013-08-28 22:54:00,76.4,72.9,29.98,West,273,0.0,0.0,89,0.00,,,0.00,Wunderground v.1.15,2013-08-29 02:54:00,
2013-08-28 23:00:00,76.4,72.9,29.98,West,273,0.0,0.0,89,0.00,,,0.00,Wunderground v.1.15,2013-08-29 03:00:00,
2013-08-28 23:06:00,76.4,72.9,29.98,West,273,0.0,1.0,89,0.00,,,0.00,Wunderground v.1.15,2013-08-29 03:06:00,
2013-08-28 23:12:00,76.3,72.8,29.97,West,273,0.0,0.0,89,0.00,,,0.00,Wunderground v.1.15,2013-08-29 03:12:00,
2013-08-28 23:18:00,76.3,72.8,29.98,West,273,0.0,0.0,89,0.00,,,0.00,Wunderground v.1.15,2013-08-29 03:18:00,
2013-08-28 23:24:00,76.3,72.8,29.97,WNW,285,0.0,1.0,89,0.00,,,0.00,Wunderground v.1.15,2013-08-29 03:24:00,
2013-08-28 23:30:00,76.3,72.8,29.97,WNW,285,0.0,0.0,89,0.00,,,0.00,Wunderground v.1.15,2013-08-29 03:30:00,
2013-08-28 23:36:00,76.2,72.7,29.98,WNW,285,0.0,0.0,89,0.00,,,0.00,Wunderground v.1.15,2013-08-29 03:36:00,
2013-08-28 23:42:00,76.2,72.7,29.98,WNW,285,0.0,0.0,89,0.00,,,0.00,Wunderground v.1.15,2013-08-29 03:42:00,
2013-08-28 23:48:00,76.0,72.5,29.98,WNW,285,0.0,0.0,89,0.00,,,0.00,Wunderground v.1.15,2013-08-29 03:48:00,
2013-08-28 23:54:00,75.9,72.4,29.97,WNW,285,0.0,0.0,89,0.00,,,0.00,Wunderground v.1.15,2013-08-29 03:54:00,